TJS-17

Last updated on Sun Jun 21 2026 00:03:09 GMT+0000 (Coordinated Universal Time)

1 63524U 25073A 26171.49140550 -.00000074 00000+0 00000+0 0 9992 2 63524 1.0737 82.6749 0002059 302.0289 225.4498 1.00272670 4324
UTC large
Height (km)
Speed (km/s)
/
Latitude / Longitude
Inclination (degrees)
Orbital Period (minutes)
Azimuth
Elevation
Range (km)
Doppler Factor

Next 0 passes for location: London (51.5072 / 0.1276)

No passes found over London.
TJS-17